Portada
METAR-TAF:

METAR-TAF

Aeroports :

Buixehr, Iran

latitud: 28-59N, longitud: 050-50E, altitud: 19 m

Observació

L'informe es va fer fa 37 minuts, a les 22:50 UTC
Vent calma
Temperatura 17°C
Humitat 52%
Pressió 1016 hPa
Visibilitat 10 km o més
sense núvols per sota de 1500 mi sense presència de cumulonimbus.

METAR: OIBB 132250Z 00000KT CAVOK 17/07 Q1016 A3001

Hora: 02:57 (23:27 UTC)


TAF: manca

Observacions i pronòstics meteorològics de més de 4000 aeroports (METAR i TAF).

Les estacions disponibles són els punts grocs i vermells al mapa.

Posi el ratolí al punt desitjat per veure el nom de l'estació.

Feu clic per veure les observacions i els pronòstics meteorològics.

Per canviar el mapa: feu clic els botons verds amb una creu de color negre per apropar; al botó verd amb un guió per allunyar la imatge; o en les fletxes verdes per a mapes adjacents.


METAR-TAF: